Вернуться в каталог

THORAD DELTA 1 DEB

АктивенSSO
NORAD 8159·DEBRIS·🇺🇸 United States

Запущен Nov 15, 1974 с Vandenberg Space Force Base

Loading…

Ближайшие Пролёты (ближайшие 24 часа)

TLE

СвежийSource: Space-Track

Эпоха: Sep 14, 2026, 12:54 UTC

1  8159U 74089Z   26257.53753332  .00000375  00000-0  21377-2 0  9991
2  8159 101.3833 278.4078 0042688  42.2631 318.1729 12.68889624370135

Отслеживайте THORAD DELTA 1 DEB в реальном времени с AllMySat

Download on the App Store